Regional Weather Roundup
Issued by NWS

Home | Current Version | Previous Version | Text Only | Print | Product List | Glossary Off
Versions: 1 2 3 4 5 6 7 8 9 10 11 12 13 14 15 16 17 18 19 20 21 22 23 24 25 26 27 28 29 30 31 32 33 34 35 36 37 38 39 40 41 42 43 44 45 46 47 48 49 50

000
ASUS43 KLOT 210600
RWRIL

ILLINOIS REGIONAL WEATHER ROUNDUP
NATIONAL WEATHER SERVICE CHICAGO/ROMEOVILLE IL
100 AM CDT THU AUG 21 2014

NOTE: "FAIR" INDICATES FEW OR NO CLOUDS BELOW 12,000 FEET WITH NO
SIGNIFICANT WEATHER AND/OR OBSTRUCTIONS TO VISIBILITY.

* THESE STATIONS ARE NOT UNDER NWS QUALITY CONTROL. THEY ALSO MAY NOT
  REPORT WEATHER SUCH AS PRECIPITATION OR FOG.

ILZ001-002-007-009-015-016-024-210700-
NORTHWEST ILLINOIS

CITY           SKY/WX    TMP DP  RH WIND       PRES   REMARKS
MOLINE         FAIR      70  68  93 E7        29.93R
6HR MIN TEMP:  70; 6HR MAX TEMP:  76;

STERLING*      CLOUDY    70  66  88 SE5       29.96S
$$

ILZ003-004-008-010-011-017-018-210700-
NORTH CENTRAL ILLINOIS

CITY           SKY/WX    TMP DP  RH WIND       PRES   REMARKS
ROCKFORD       MOCLDY    71  67  87 S5        29.96S
6HR MIN TEMP:  70; 6HR MAX TEMP:  80;

ROCHELLE*      FAIR      68  66  93 S5        29.97S
$$

ILZ005-006-012>014-019>023-210700-
NORTHEAST ILLINOIS

CITY           SKY/WX    TMP DP  RH WIND       PRES   REMARKS
CHICAGO-OHARE  CLOUDY    74  65  73 SW7       29.95S
6HR MIN TEMP:  74; 6HR MAX TEMP:  82;

CHICAGO-MIDWAY CLOUDY    76  67  73 SW7       29.96R
6HR MIN TEMP:  76; 6HR MAX TEMP:  83;

AURORA         FAIR      71  66  84 S6        29.97R
6HR MIN TEMP:  70; 6HR MAX TEMP:  79;

WAUKEGAN       FAIR      68  66  93 N3        29.95S
6HR MIN TEMP:  67; 6HR MAX TEMP:  80;

DUPAGE AIRPORT LGT RAIN  72  67  84 S5        29.97R
6HR MIN TEMP:  72; 6HR MAX TEMP:  81; 6HR PCP:  0.01;

WHEELING       FAIR      76  68  76 CALM      29.96S
6HR MIN TEMP:  76; 6HR MAX TEMP:  83;

NORTHERLY ISL    N/A     76  65  68 SW3         N/A
$$

LMZ740>746-210700-
SOUTHERN LAKE MICHIGAN

STATION/POSITION SKY/WX   TEMP    WIND        PRES    VSBY  WAVE
                          AIR SEA DIR/SP/G                  HT/PER
                          (F)     (DEG/KT/KT) (MB)    (MI)  (FT/S)
SOUTHERN BUOY              68 68   70/  8/  8 1014.4R         0
WAUKEGAN HARBOR            70      10/  6/  7   N/A
HARRISON CRIB              76     270/  6/  7   N/A
BURNHAM HARBOR             76     260/  4/  9   N/A
CALUMET HARBOR             75     200/  4/  5 1013.3S
MICHIGAN CITY              74     180/  4/  5   N/A
MICHIGAN CITY 6N           72 72  190/  4/  4   N/A           1/ 3
ST. JOSEPH                 72 71  200/  4/  6   N/A           1/ 2
$$

ILZ025>027-034>036-040-047-049-050-058-095>099-210700-
WEST-CENTRAL ILLINOIS

CITY           SKY/WX    TMP DP  RH WIND       PRES   REMARKS
QUINCY         FAIR      75  68  78 S9        29.94R
MACOMB*        FAIR      72  71  98 S3        29.96R
$$

ILZ028>032-037-038-041>044-048-051>054-059>061-210700-
CENTRAL ILLINOIS

CITY           SKY/WX    TMP DP  RH WIND       PRES   REMARKS
DECATUR        FAIR      73  70  90 S10       29.98R
PEORIA         FAIR      74  69  85 S5        29.95S
6HR MIN TEMP:  74; 6HR MAX TEMP:  80;

SPRINGFIELD    FAIR      75  70  84 S8        29.96R
6HR MIN TEMP:  74; 6HR MAX TEMP:  80;

TAYLORVILLE    NOT AVBL
$$

ILZ033-039-045-046-055>057-062-063-210700-
EAST-CENTRAL ILLINOIS

CITY           SKY/WX    TMP DP  RH WIND       PRES   REMARKS
CHAMPAIGN      FAIR      72  68  87 S8        29.99S
MATTOON        FAIR      74  69  85 SW8G16    29.98F
$$

ILZ079-100>102-210700-
SOUTHWEST ILLINOIS

CITY           SKY/WX    TMP DP  RH WIND       PRES   REMARKS
CAHOKIA*       MOCLDY    76  73  91 S5        29.97R
$$

ILZ064>066-069>071-074>076-080>082-084>086-088>090-092>094-210700-
SOUTH-CENTRAL ILLINOIS

CITY           SKY/WX    TMP DP  RH WIND       PRES   REMARKS
CARBONDALE     FAIR      80  73  79 S8        30.00R HX  84
6HR MIN TEMP:  77; 6HR MAX TEMP:  81;

MT. VERNON     MOCLDY    72  66  83 NE7       30.03F THUNDER
SALEM*         FAIR      74  73  97 SE7       30.01F
$$

ILZ067-068-072-073-078-083-087-091-210700-
SOUTHEAST ILLINOIS

CITY           SKY/WX    TMP DP  RH WIND       PRES   REMARKS
LAWRENCEVILLE  MOCLDY    74  71  91 SW8       30.03R
HARRISBURG*    FAIR      75  73  93 CALM      30.03S
ROBINSON*      FAIR      75  71  88 SW14G20   30.02R
$$

ABBREVIATIONS USED IN REMARKS
   TC - TEMPERATURE IN CELSIUS
  WCI - WIND CHILL INDEX
   HX - HEAT INDEX
  VSB - VISIBILITY
$$




USA.gov is the U.S. government's official web portal to all federal, state and local government web resources and services.